User: anonymous   Login
Location: Unspecified
(0.0000°N, 0.0000°E)
Time: 19:40:53
(UTC+00:00)
Language:

GOSAT - Orbit

View from above orbital plane
View from above orbital plane
View from above satellite
View from above satellite

Ground track
Ground track

The orbit data is extracted from the following two-line orbital elements,

1 33492U 09002A   14298.15645769 -.00000171  00000-0 -21732-4 0   473
2 33492 098.0594 045.6074 0001687 082.5727 277.5654 14.67550849308148
Epoch (UTC): 25 October 2014 03:45:17
Eccentricity: 0.0001687
inclination: 98.0594°
perigee height: 668 km
apogee height: 670 km
right ascension of ascending node: 45.6074°
argument of perigee: 82.5727°
revolutions per day: 14.67550849
mean anomaly at epoch: 277.5654°
orbit number at epoch: 30814

The dashed part of the orbit path shows where the satellite is in the earth's shadow,  

DLR